Regional Weather Roundup
Issued by NWS Newport/Morehead, NC

Current Version | Previous Version | Text Only | Print | Product List | Glossary On
Versions: 1 2 3 4 5 6 7 8 9 10 11 12 13 14 15 16 17 18 19 20 21 22 23 24 25 26 27 28 29 30 31 32 33 34 35 36 37 38 39 40 41 42 43 44 45 46 47 48 49 50
000
ASUS42 KMHX 051026
RWRMHX
WEATHER ROUNDUP FOR EASTERN NORTH CAROLINA
NATIONAL WEATHER SERVICE NEWPORT/MOREHEAD CITY NC
600 AM EDT SAT SEP 05 2015

NOTE: "FAIR" INDICATES FEW OR NO CLOUDS BELOW 12,000 FEET
WITH NO SIGNIFICANT WEATHER AND/OR OBSTRUCTIONS TO VISIBILITY

NCZ015>017-031-032-045>047-102-103-051100-
NORTH COAST

CITY           SKY/WX    TMP DP  RH WIND       PRES   REMARKS
EDENTON        CLEAR     69  67  96 N6        30.07R FOG
ELIZABETH CITY PTCLDY    75  72  90 N8        30.07R
KITTY HAWK     MOSUNNY   78  73  84 N9        30.04R
MANTEO         MOCLDY    77  73  86 NE8       30.05R

$$

NCZ045>047-081-094-103-104-051100-
CENTRAL COAST

CITY           SKY/WX    TMP DP  RH WIND       PRES   REMARKS
FRISCO         MOCLDY    78  70  76 NE8       30.02R
SWANQUARTER      N/A     73 N/A N/A NE9       30.00S

$$

NCZ095-097-098-100-101-051100-
SOUTHERN COAST

CITY           SKY/WX    TMP DP  RH WIND       PRES   REMARKS
BEAUFORT       MOCLDY    75  74  96 N8        30.03S
CEDAR ISLAND     N/A     79 N/A N/A N22       30.06S
JACKSONVILLE   MOCLDY    72  69  90 N9        30.03R FOG
PINEY ISLAND   MOSUNNY  N/A N/A N/A NE15G22   30.03R
WILMINGTON     MOCLDY    72  70  93 N5        30.03S FOG


$$

NCZ011>013-027>030-043-044-078>080-089-090>093-098-051100-
COASTAL PLAIN

CITY           SKY/WX    TMP DP  RH WIND       PRES   REMARKS
AHOSKIE        CLOUDY    69  68  97 N3        30.10R FOG
CLINTON        PTCLDY    70  70 100 N5        30.07R FOG
ELIZABETHTOWN  CLOUDY    70  70 100 CALM      30.06S FOG
GOLDSBORO      CLEAR     71  70  98 N6        30.06R
GREENVILLE     CLEAR     70  70 100 N6        30.09R FOG
HAVELOCK       PTCLDY    75  73  93 N12       30.05R
KENANSVILLE      N/A     70  69  96 N3        30.08R FOG
KINSTON          N/A     71  70  97 N6        30.08R FOG
NEW BERN       MOCLDY    74  71  91 NE6       30.06R
RICHLANDS      PTCLDY    72  64  78 N7        30.05S
ROCKY MOUNT    PTCLDY    71  69  93 N7        30.10R FOG
WASHINGTON     CLEAR     71  70  95 N6        30.07R
WHITEVILLE     MOCLDY    71  69  95 NE5       30.04R FOG

$$

AMZ130-135-150-152-154-156-158-170-250-252-270-ANZ085-086-088-633-658-670-051100-
MARINE OBSERVATIONS

STATION/POSITION TIME  TEMP    WIND        PRES    WAVE   SWELL
                       AIR SEA DIR/SP/G            HT/PER HT/PER
                 (UTC) (F)     (DEG/KT/KT) (MB)    (FT/S) (FT/S)
CHESAPEAKE LIGHT 1000   78      50/ 23/ 26 1018.8
64 E VA BEACH    0950   80 80   50/ 21/ 25 1016.4    5/ 6
DUCK             1000   79 80   30/ 20/ 21 1016.6
2 E DUCK         0911      80                N/A     4/ 6
OREGON INLET     1000   78 81   20/  8/ 11 1017.0
13E OREGON INLT  1000      80                N/A     4/ 6
HATTERAS CG      1000   79 83   40/  9/ 16 1016.4
DIAMOND BUOY     0950   80 84   40/ 17/ 21 1015.8    4/ 5   2/11
CAPE LOOKOUT     1000   80      30/ 19/ 22 1016.2
BEAUFORT LAB     1000   76 82  360/  8/ 11 1016.1
30 SE NEW RVR IN 0908   79 82   20/ 17/ 21 1016.2
30 SE NEW RVR IN 0925      81                N/A     3/ 3
27 SE WRIGHTSVLE 1000   75 82   30/ 14/ 16   N/A
5 SE WRIGHTSVLE  0908   76 82   20/ 14/ 17 1016.5
225 S CAPE HAT   0950   82 84   40/  8/  8 1014.1    1/10   2/10
41 SE CHARLESTON 0950   81 84   20/ 14/ 16 1015.2    1/ 3

$$



USA.gov is the U.S. government's official web portal to all federal, state and local government web resources and services.